Location: Kumla
(59.1265°N, 15.1401°E)
Time: 15:47:03
(UTC+01:00)

Vanguard 1 - All Passes

Search period start: 03 December 2023 00:00
Search period end: 13 December 2023 00:00
Orbit: 651 x 3828 km, 34.3° (Epoch: 01 December)

Date Brightness Start Highest point End Pass type
(mag) Time Alt. Az. Time Alt. Az. Time Alt. Az.
03 Dec - 00:03:19 10° WSW 00:18:21 22° SW 00:32:03 10° S visible
03 Dec - 17:22:21 10° S 17:34:17 22° SE 17:48:50 10° ESE visible
03 Dec - 19:38:58 10° SW 19:55:03 33° S 20:13:38 10° ESE visible
03 Dec - 21:59:40 10° WSW 22:17:02 31° SSW 22:34:29 10° SE visible
04 Dec - 00:24:40 10° WSW 00:37:50 19° SW 00:50:01 10° S visible
04 Dec - 17:41:06 10° SSW 17:53:50 25° SSE 18:09:43 10° ESE visible
04 Dec - 19:58:44 10° SW 20:14:58 33° S 20:33:41 10° ESE visible
04 Dec - 22:20:04 10° WSW 22:36:51 29° SSW 22:53:43 10° SSE visible
05 Dec - 00:46:48 10° WSW 00:57:12 15° SW 01:07:02 10° SSW visible
05 Dec - 15:48:14 10° SSE 15:54:19 13° SE 16:01:15 10° ESE visible
05 Dec - 18:00:12 10° SSW 18:13:29 28° SSE 18:30:21 10° ESE visible
05 Dec - 20:18:39 10° SW 20:34:54 33° S 20:53:35 10° SE visible
05 Dec - 22:40:40 10° WSW 22:56:37 26° SSW 23:12:38 10° SSE visible
06 Dec - 01:11:03 10° WSW 01:16:27 11° SW 01:21:43 10° SW visible
06 Dec - 16:05:15 10° SSE 16:13:34 16° SE 16:23:45 10° ESE visible
06 Dec - 18:19:34 10° SSW 18:33:14 30° SSE 18:50:45 10° ESE visible
06 Dec - 20:38:44 10° WSW 20:54:50 32° S 21:13:16 10° SE visible
06 Dec - 23:01:32 10° WSW 23:16:17 23° SW 23:31:08 10° S visible
07 Dec - 16:23:22 10° S 16:32:58 19° SE 16:45:14 10° ESE visible
07 Dec - 18:39:10 10° SW 18:53:04 31° SSE 19:11:00 10° ESE visible
07 Dec - 20:58:56 10° WSW 21:14:45 31° SSW 21:32:45 10° SE visible
07 Dec - 23:22:49 10° WSW 23:35:51 19° SW 23:49:01 10° S visible
08 Dec - 16:42:05 10° S 16:52:28 22° SSE 17:06:14 10° ESE visible
08 Dec - 18:58:55 10° SW 19:12:57 32° S 19:31:04 10° ESE visible
08 Dec - 21:19:19 10° WSW 21:34:37 28° SSW 21:51:57 10° SSE visible
08 Dec - 23:44:52 10° WSW 23:55:20 15° SW 00:05:56 10° SSW visible
09 Dec - 17:01:10 10° SSW 17:12:05 25° SSE 17:26:55 10° ESE visible
09 Dec - 19:18:50 10° SW 19:32:52 31° S 19:50:58 10° SE visible
09 Dec - 21:39:53 10° WSW 21:54:27 26° SSW 22:10:48 10° SSE visible
10 Dec - 00:08:52 10° WSW 00:14:42 12° SW 00:20:36 10° SW visible
10 Dec - 15:07:31 10° SSE 15:12:52 13° SE 15:19:13 10° ESE daylight
10 Dec - 17:20:32 10° SSW 17:31:48 27° SSE 17:47:23 10° ESE visible
10 Dec - 19:38:53 10° WSW 19:52:49 30° S 20:10:40 10° SE visible
10 Dec - 22:00:44 10° WSW 22:14:12 22° SSW 22:29:11 10° S visible
11 Dec - 15:25:15 10° S 15:32:14 16° SE 15:41:09 10° ESE daylight
11 Dec - 17:40:06 10° SW 17:51:36 28° SSE 18:07:39 10° ESE visible
11 Dec - 19:59:04 10° WSW 20:12:45 29° SSW 20:30:06 10° SE visible
11 Dec - 22:22:02 10° WSW 22:33:54 19° SW 22:46:54 10° S visible
12 Dec - 15:43:48 10° S 15:51:43 19° SE 16:02:20 10° ESE visible
12 Dec - 17:59:51 10° SW 18:11:28 29° S 18:27:44 10° ESE visible
12 Dec - 20:19:26 10° WSW 20:32:40 27° SSW 20:49:14 10° SSE visible
12 Dec - 22:44:09 10° WSW 22:53:29 15° SW 23:03:33 10° SSW visible
